TimeCDT,TemperatureF,Dew PointF,Humidity,Sea Level PressureIn,VisibilityMPH,Wind Direction,Wind SpeedMPH,Gust SpeedMPH,PrecipitationIn,Events,Conditions,WindDirDegrees,DateUTC
12:15 AM,66.9,63.1,88,30.12,10.0,SW,12.7,-,N/A,,Clear,220,2013-06-30 05:15:00
12:35 AM,67.3,63.1,87,30.11,10.0,SW,9.2,-,N/A,,Clear,220,2013-06-30 05:35:00
12:55 AM,68.0,63.1,84,30.11,10.0,SW,9.2,-,N/A,,Clear,230,2013-06-30 05:55:00
1:15 AM,67.6,62.8,84,30.12,10.0,WSW,8.1,-,N/A,,Clear,240,2013-06-30 06:15:00
1:35 AM,67.3,62.1,83,30.11,10.0,WSW,4.6,-,N/A,,Clear,250,2013-06-30 06:35:00
1:55 AM,67.5,62.1,83,30.12,10.0,NW,6.9,-,N/A,,Scattered Clouds,320,2013-06-30 06:55:00
2:15 AM,66.2,62.4,88,30.14,10.0,North,6.9,-,N/A,,Scattered Clouds,350,2013-06-30 07:15:00
2:35 AM,67.5,61.0,80,30.15,10.0,North,13.8,-,N/A,,Scattered Clouds,350,2013-06-30 07:35:00
2:55 AM,68.0,60.1,76,30.14,10.0,NNW,10.4,-,N/A,,Scattered Clouds,330,2013-06-30 07:55:00
3:15 AM,67.1,60.3,79,30.13,10.0,NNW,4.6,-,N/A,,Scattered Clouds,330,2013-06-30 08:15:00
3:35 AM,66.2,60.4,82,30.12,10.0,WNW,6.9,-,N/A,,Clear,300,2013-06-30 08:35:00
3:55 AM,66.0,61.0,84,30.11,10.0,West,4.6,-,N/A,,Clear,280,2013-06-30 08:55:00
4:15 AM,66.7,60.8,81,30.11,10.0,North,8.1,-,N/A,,Clear,350,2013-06-30 09:15:00
4:35 AM,65.3,60.6,85,30.12,10.0,NNW,8.1,-,N/A,,Clear,330,2013-06-30 09:35:00
4:55 AM,65.3,59.9,83,30.12,10.0,North,10.4,-,N/A,,Clear,360,2013-06-30 09:55:00
5:15 AM,64.9,58.6,80,30.12,10.0,NNE,9.2,-,N/A,,Clear,20,2013-06-30 10:15:00
5:35 AM,65.5,55.8,71,30.13,10.0,ENE,8.1,-,N/A,,Clear,60,2013-06-30 10:35:00
5:55 AM,64.9,53.1,65,30.12,10.0,East,10.4,16.1,N/A,,Clear,80,2013-06-30 10:55:00
6:15 AM,64.8,52.0,63,30.14,10.0,ENE,9.2,-,N/A,,Clear,60,2013-06-30 11:15:00
6:35 AM,63.5,52.2,67,30.14,10.0,NE,10.4,-,N/A,,Clear,40,2013-06-30 11:35:00
6:55 AM,62.8,51.8,67,30.15,10.0,ENE,8.1,-,N/A,,Clear,60,2013-06-30 11:55:00
7:15 AM,62.4,52.7,70,30.15,10.0,ENE,10.4,-,N/A,,Clear,70,2013-06-30 12:15:00
7:35 AM,64.2,52.5,66,30.15,10.0,East,11.5,-,N/A,,Clear,100,2013-06-30 12:35:00
7:55 AM,65.3,52.3,63,30.16,10.0,East,11.5,-,N/A,,Clear,90,2013-06-30 12:55:00
8:15 AM,67.3,52.5,59,30.16,10.0,East,9.2,-,N/A,,Clear,100,2013-06-30 13:15:00
8:35 AM,68.2,53.1,58,30.16,10.0,East,10.4,-,N/A,,Clear,100,2013-06-30 13:35:00
8:55 AM,68.7,52.2,55,30.16,10.0,ESE,10.4,-,N/A,,Clear,120,2013-06-30 13:55:00
9:15 AM,69.8,52.3,54,30.15,10.0,SSE,11.5,-,N/A,,Clear,150,2013-06-30 14:15:00
9:35 AM,71.2,52.7,52,30.16,10.0,SSE,11.5,-,N/A,,Clear,160,2013-06-30 14:35:00
9:55 AM,72.7,54.1,52,30.16,10.0,SSE,9.2,-,N/A,,Clear,150,2013-06-30 14:55:00
10:15 AM,74.1,54.1,50,30.17,10.0,SE,9.2,-,N/A,,Clear,140,2013-06-30 15:15:00
10:35 AM,74.7,54.3,49,30.17,10.0,East,8.1,-,N/A,,Clear,100,2013-06-30 15:35:00
10:55 AM,74.8,54.5,49,30.16,10.0,East,11.5,-,N/A,,Clear,90,2013-06-30 15:55:00
11:15 AM,75.6,54.0,47,30.17,10.0,East,5.8,-,N/A,,Clear,90,2013-06-30 16:15:00
11:35 AM,77.2,55.2,47,30.17,10.0,SE,10.4,-,N/A,,Clear,140,2013-06-30 16:35:00
11:55 AM,77.2,55.0,46,30.16,10.0,ESE,8.1,-,N/A,,Clear,120,2013-06-30 16:55:00
12:15 PM,79.2,56.5,46,30.16,10.0,SE,12.7,17.3,N/A,,Clear,130,2013-06-30 17:15:00
12:35 PM,78.8,56.1,46,30.16,10.0,NE,5.8,16.1,N/A,,Clear,50,2013-06-30 17:35:00
12:55 PM,80.4,55.8,43,30.15,10.0,East,9.2,18.4,N/A,,Clear,80,2013-06-30 17:55:00
1:15 PM,80.2,54.5,41,30.14,10.0,ENE,10.4,-,N/A,,Clear,70,2013-06-30 18:15:00
1:35 PM,81.5,54.1,39,30.14,10.0,NE,6.9,-,N/A,,Clear,50,2013-06-30 18:35:00
1:55 PM,82.6,54.0,37,30.13,10.0,ENE,11.5,17.3,N/A,,Clear,70,2013-06-30 18:55:00
2:15 PM,83.5,52.7,34,30.12,10.0,East,10.4,21.9,N/A,,Clear,100,2013-06-30 19:15:00
2:35 PM,83.7,52.0,33,30.12,10.0,ESE,9.2,19.6,N/A,,Clear,120,2013-06-30 19:35:00
2:55 PM,83.5,51.3,33,30.11,10.0,ENE,4.6,17.3,N/A,,Clear,60,2013-06-30 19:55:00
3:15 PM,84.9,51.4,31,30.11,10.0,ENE,15.0,21.9,N/A,,Clear,70,2013-06-30 20:15:00
3:35 PM,85.1,51.4,31,30.11,10.0,ESE,12.7,16.1,N/A,,Clear,110,2013-06-30 20:35:00
3:55 PM,82.8,50.4,32,30.10,10.0,ENE,10.4,19.6,N/A,,Clear,70,2013-06-30 20:55:00
4:15 PM,82.9,50.2,32,30.11,10.0,East,11.5,17.3,N/A,,Clear,80,2013-06-30 21:15:00
4:35 PM,82.2,50.2,33,30.11,10.0,ENE,12.7,17.3,N/A,,Clear,70,2013-06-30 21:35:00
4:55 PM,80.2,50.4,35,30.12,10.0,ENE,15.0,-,N/A,,Clear,60,2013-06-30 21:55:00
5:15 PM,80.6,50.5,35,30.12,10.0,NE,13.8,19.6,N/A,,Clear,40,2013-06-30 22:15:00
5:35 PM,81.5,50.4,34,30.12,10.0,NE,17.3,21.9,N/A,,Clear,50,2013-06-30 22:35:00
5:55 PM,79.0,52.5,40,30.12,10.0,NE,23.0,32.2,N/A,,Clear,40,2013-06-30 22:55:00
6:15 PM,78.1,52.9,41,30.13,10.0,NE,23.0,29.9,N/A,,Clear,50,2013-06-30 23:15:00
6:35 PM,76.6,52.3,43,30.12,10.0,ENE,20.7,26.5,N/A,,Clear,60,2013-06-30 23:35:00
6:55 PM,73.8,54.5,51,30.13,10.0,NE,21.9,29.9,N/A,,Clear,50,2013-06-30 23:55:00
7:15 PM,68.9,57.2,66,30.13,10.0,NE,17.3,-,N/A,Rain,Light Rain,50,2013-07-01 00:15:00
7:35 PM,69.8,55.8,61,30.13,10.0,NE,17.3,20.7,N/A,,Scattered Clouds,50,2013-07-01 00:35:00
7:55 PM,68.0,57.0,68,30.12,10.0,ENE,10.4,-,N/A,,Scattered Clouds,70,2013-07-01 00:55:00
8:15 PM,68.0,57.2,68,30.11,10.0,East,9.2,-,N/A,,Clear,100,2013-07-01 01:15:00
8:35 PM,67.3,57.2,70,30.13,10.0,NE,9.2,-,N/A,,Clear,50,2013-07-01 01:35:00
8:55 PM,67.1,57.2,70,30.15,10.0,NE,6.9,-,N/A,,Clear,40,2013-07-01 01:55:00
9:15 PM,66.9,56.7,70,30.16,10.0,NNE,5.8,-,N/A,,Clear,30,2013-07-01 02:15:00
9:35 PM,66.2,57.2,73,30.17,10.0,NNE,5.8,-,N/A,,Clear,30,2013-07-01 02:35:00
9:55 PM,65.3,58.5,78,30.18,10.0,North,4.6,-,N/A,,Clear,10,2013-07-01 02:55:00
10:15 PM,65.8,58.3,77,30.18,10.0,North,6.9,-,N/A,,Clear,350,2013-07-01 03:15:00
10:35 PM,65.5,60.1,83,30.19,10.0,NW,4.6,-,N/A,Rain,Light Rain,310,2013-07-01 03:35:00
10:55 PM,64.6,59.5,84,30.19,10.0,NNW,6.9,-,N/A,,Clear,330,2013-07-01 03:55:00
11:15 PM,63.9,59.2,85,30.19,10.0,NNW,8.1,-,N/A,,Clear,340,2013-07-01 04:15:00
11:35 PM,63.5,59.2,86,30.19,10.0,North,8.1,-,N/A,,Clear,350,2013-07-01 04:35:00
11:55 PM,63.5,59.5,87,30.20,10.0,North,6.9,-,N/A,,Clear,350,2013-07-01 04:55:00